| time (UTC) | temp F | wind direction | speed knots | gust knots | rain 1hr in | rain 24hr in | rain mn in | humidity % | barometer mb |
| 20260506104006 | 51 | 160 | 1.7 | 4.3 | 0.00 | 0.00 | 0.00 | 57 | 1008.0 |
| 20260506103506 | 51 | 160 | 3.5 | 5.2 | 0.00 | 0.00 | 0.00 | 57 | 1008.0 |
| 20260506103009 | 51 | 160 | 2.6 | 5.2 | 0.00 | 0.00 | 0.00 | 57 | 1007.9 |
| 20260506102505 | 51 | 160 | 4.3 | 5.2 | 0.00 | 0.00 | 0.00 | 58 | 1007.9 |
| 20260506102004 | 50 | 160 | 3.5 | 5.2 | 0.00 | 0.00 | 0.00 | 58 | 1007.9 |
| 20260506101505 | 50 | 162 | 4.3 | 5.2 | 0.00 | 0.00 | 0.00 | 59 | 1007.8 |
| 20260506101003 | 50 | 167 | 2.6 | 4.3 | 0.00 | 0.00 | 0.00 | 60 | 1007.8 |
| 20260506100504 | 50 | 167 | 3.5 | 4.3 | 0.00 | 0.00 | 0.00 | 60 | 1007.7 |
| 20260506100001 | 50 | 168 | 2.6 | 3.5 | 0.00 | 0.00 | 0.00 | 60 | 1007.7 |
| 20260506095602 | 50 | 184 | 2.6 | 3.5 | 0.00 | 0.00 | 0.00 | 59 | 1007.6 |
| 20260506095058 | 51 | 249 | 1.7 | 2.6 | 0.00 | 0.00 | 0.00 | 58 | 1007.5 |
| 20260506094557 | 51 | 249 | 0.0 | 2.6 | 0.00 | 0.00 | 0.00 | 57 | 1007.5 |
| 20260506094058 | 51 | 249 | 0.0 | 0.0 | 0.00 | 0.00 | 0.00 | 56 | 1007.4 |
| 20260506093554 | 52 | 249 | 0.0 | 0.0 | 0.00 | 0.00 | 0.00 | 55 | 1007.3 |
| 20260506093054 | 52 | 249 | 0.0 | 0.0 | 0.00 | 0.00 | 0.00 | 55 | 1007.3 |
| 20260506092552 | 52 | 249 | 0.0 | 0.9 | 0.00 | 0.00 | 0.00 | 54 | 1007.2 |
| 20260506092051 | 53 | 249 | 0.0 | 1.7 | 0.00 | 0.00 | 0.00 | 53 | 1007.2 |
| 20260506091555 | 54 | 249 | 0.0 | 1.7 | 0.00 | 0.00 | 0.00 | 52 | 1007.2 |
| 20260506091052 | 54 | 249 | 0.0 | 0.0 | 0.00 | 0.00 | 0.00 | 51 | 1007.1 |
| 20260506090550 | 54 | 249 | 0.0 | 0.0 | 0.00 | 0.00 | 0.00 | 50 | 1007.0 |
| 20260506090053 | 55 | 249 | 0.0 | 0.9 | 0.00 | 0.00 | 0.00 | 49 | 1007.0 |
| 20260506085544 | 55 | 249 | 0.0 | 1.7 | 0.00 | 0.00 | 0.00 | 49 | 1007.0 |
| 20260506085045 | 55 | 249 | 0.0 | 2.6 | 0.00 | 0.00 | 0.00 | 48 | 1007.0 |
| 20260506084547 | 56 | 249 | 0.0 | 2.6 | 0.00 | 0.00 | 0.00 | 48 | 1007.0 |
| 20260506084041 | 56 | 249 | 1.7 | 3.5 | 0.00 | 0.00 | 0.00 | 47 | 1006.9 |
| 20260506083542 | 56 | 249 | 1.7 | 3.5 | 0.00 | 0.00 | 0.00 | 47 | 1007.0 |
| 20260506083040 | 56 | 249 | 1.7 | 4.3 | 0.00 | 0.00 | 0.00 | 47 | 1007.0 |
| 20260506082538 | 56 | 248 | 2.6 | 6.1 | 0.00 | 0.00 | 0.00 | 46 | 1007.0 |
| 20260506082038 | 57 | 243 | 3.5 | 7.0 | 0.00 | 0.00 | 0.00 | 46 | 1007.1 |
| 20260506081537 | 57 | 255 | 3.5 | 7.0 | 0.00 | 0.00 | 0.00 | 45 | 1007.0 |
| 20260506081035 | 57 | 252 | 3.5 | 7.0 | 0.00 | 0.00 | 0.00 | 45 | 1007.1 |
| 20260506080535 | 57 | 250 | 3.5 | 7.0 | 0.00 | 0.00 | 0.00 | 45 | 1007.1 |
| 20260506073027 | 58 | 266 | 4.3 | 7.0 | 0.00 | 0.00 | 0.00 | 41 | 1006.8 |
| 20260506072529 | 59 | 264 | 4.3 | 7.0 | 0.00 | 0.00 | 0.00 | 41 | 1006.7 |
| 20260506072024 | 59 | 247 | 3.5 | 7.8 | 0.00 | 0.00 | 0.00 | 40 | 1006.7 |
| 20260506071524 | 59 | 262 | 3.5 | 7.8 | 0.00 | 0.00 | 0.00 | 39 | 1006.7 |
| 20260506071023 | 59 | 197 | 2.6 | 5.2 | 0.00 | 0.00 | 0.00 | 38 | 1006.7 |
| 20260506070522 | 59 | 197 | 1.7 | 5.2 | 0.00 | 0.00 | 0.00 | 38 | 1006.7 |
| 20260506062514 | 61 | 202 | 2.6 | 4.3 | 0.00 | 0.00 | 0.00 | 35 | 1006.3 |
| 20260506062012 | 61 | 210 | 2.6 | 5.2 | 0.00 | 0.00 | 0.00 | 34 | 1006.2 |
| 20260506061512 | 61 | 213 | 2.6 | 5.2 | 0.00 | 0.00 | 0.00 | 34 | 1006.1 |
| 20260506061012 | 61 | 208 | 2.6 | 5.2 | 0.00 | 0.00 | 0.00 | 34 | 1006.1 |
| 20260506060509 | 61 | 218 | 2.6 | 5.2 | 0.00 | 0.00 | 0.00 | 34 | 1006.0 |
| 20260506051006 | 64 | 218 | 4.3 | 8.7 | 0.00 | 0.00 | 0.00 | 30 | 1005.5 |
| 20260506050507 | 64 | 235 | 4.3 | 8.7 | 0.00 | 0.00 | 0.00 | 30 | 1005.5 |
| 20260506045007 | 64 | 201 | 5.2 | 7.8 | 0.00 | 0.00 | 0.00 | 29 | 1005.4 |
| 20260506044508 | 65 | 195 | 4.3 | 7.0 | 0.00 | 0.00 | 0.00 | 29 | 1005.3 |
| 20260506044005 | 65 | 196 | 4.3 | 7.0 | 0.00 | 0.00 | 0.00 | 28 | 1005.2 |
| 20260506043505 | 65 | 203 | 3.5 | 12.2 | 0.00 | 0.00 | 0.00 | 28 | 1005.2 |
| 20260506043004 | 65 | 193 | 4.3 | 12.2 | 0.00 | 0.00 | 0.00 | 28 | 1005.1 |
| 20260506042504 | 65 | 210 | 5.2 | 8.7 | 0.00 | 0.00 | 0.00 | 28 | 1005.1 |
| 20260506042005 | 66 | 212 | 6.1 | 8.7 | 0.00 | 0.00 | 0.00 | 27 | 1005.0 |
| 20260506041504 | 66 | 198 | 4.3 | 7.8 | 0.00 | 0.00 | 0.00 | 27 | 1005.0 |
| 20260506041003 | 66 | 206 | 4.3 | 8.7 | 0.00 | 0.00 | 0.00 | 27 | 1004.9 |
| 20260506040503 | 66 | 187 | 5.2 | 7.8 | 0.00 | 0.00 | 0.00 | 27 | 1004.9 |
| 20260506040003 | 66 | 194 | 4.3 | 8.7 | 0.00 | 0.00 | 0.00 | 27 | 1004.8 |
| 20260506035505 | 66 | 218 | 5.2 | 8.7 | 0.00 | 0.00 | 0.00 | 26 | 1004.7 |
| 20260506035003 | 67 | 200 | 5.2 | 8.7 | 0.00 | 0.00 | 0.00 | 26 | 1004.6 |
| 20260506034507 | 67 | 202 | 5.2 | 11.3 | 0.00 | 0.00 | 0.00 | 25 | 1004.5 |
| 20260506034002 | 67 | 227 | 6.1 | 11.3 | 0.00 | 0.00 | 0.00 | 25 | 1004.3 |
| 20260506033501 | 67 | 216 | 5.2 | 10.4 | 0.00 | 0.00 | 0.00 | 25 | 1004.2 |
| 20260506033001 | 67 | 234 | 6.1 | 10.4 | 0.00 | 0.00 | 0.00 | 26 | 1004.1 |
| 20260506032501 | 67 | 214 | 4.3 | 7.0 | 0.00 | 0.00 | 0.00 | 26 | 1004.1 |
| 20260506032003 | 68 | 212 | 3.5 | 7.0 | 0.00 | 0.00 | 0.00 | 26 | 1004.0 |
| 20260506031502 | 68 | 210 | 3.5 | 7.0 | 0.00 | 0.00 | 0.00 | 26 | 1003.9 |
| 20260506031100 | 68 | 207 | 3.5 | 6.1 | 0.00 | 0.00 | 0.00 | 26 | 1003.9 |
| 20260506030601 | 68 | 210 | 3.5 | 6.1 | 0.00 | 0.00 | 0.00 | 26 | 1003.7 |
| 20260506025602 | 68 | 224 | 2.6 | 6.1 | 0.00 | 0.00 | 0.00 | 26 | 1003.7 |
| 20260506025101 | 68 | 216 | 2.6 | 7.0 | 0.00 | 0.00 | 0.00 | 26 | 1003.5 |
| 20260506024618 | 69 | 233 | 2.6 | 8.7 | 0.00 | 0.00 | 0.00 | 26 | 1003.4 |
| 20260506024059 | 69 | 237 | 4.3 | 8.7 | 0.00 | 0.00 | 0.00 | 26 | 1003.5 |
| 20260506023559 | 69 | 223 | 2.6 | 8.7 | 0.00 | 0.00 | 0.00 | 26 | 1003.4 |
| 20260506023058 | 69 | 235 | 3.5 | 10.4 | 0.00 | 0.00 | 0.00 | 26 | 1003.2 |
| 20260506022558 | 69 | 250 | 6.1 | 10.4 | 0.00 | 0.00 | 0.00 | 26 | 1003.3 |
| 20260506022058 | 69 | 256 | 6.1 | 10.4 | 0.00 | 0.00 | 0.00 | 26 | 1003.2 |
| 20260506021559 | 69 | 234 | 6.1 | 11.3 | 0.00 | 0.00 | 0.00 | 26 | 1003.2 |
| 20260506021058 | 70 | 235 | 7.0 | 9.6 | 0.00 | 0.00 | 0.00 | 26 | 1003.0 |
| 20260506020557 | 70 | 258 | 5.2 | 8.7 | 0.00 | 0.00 | 0.00 | 26 | 1003.0 |
| 20260506020059 | 70 | 257 | 6.1 | 13.0 | 0.00 | 0.00 | 0.00 | 26 | 1003.0 |
| 20260506015557 | 70 | 260 | 8.7 | 12.2 | 0.00 | 0.00 | 0.00 | 26 | 1003.0 |
| 20260506015057 | 70 | 240 | 5.2 | 13.9 | 0.00 | 0.00 | 0.00 | 27 | 1002.8 |
| 20260506014557 | 70 | 270 | 7.8 | 13.9 | 0.00 | 0.00 | 0.00 | 26 | 1002.8 |
| 20260506014100 | 71 | 270 | 7.8 | 13.0 | 0.00 | 0.00 | 0.00 | 27 | 1002.8 |
| 20260506013557 | 71 | 247 | 7.8 | 13.0 | 0.00 | 0.00 | 0.00 | 27 | 1002.8 |
| 20260506013156 | 71 | 252 | 9.6 | 13.0 | 0.00 | 0.00 | 0.00 | 29 | 1002.7 |
| 20260506012558 | 71 | 265 | 7.8 | 13.9 | 0.00 | 0.00 | 0.00 | 30 | 1002.6 |
| 20260506012054 | 71 | 252 | 7.0 | 13.9 | 0.00 | 0.00 | 0.00 | 31 | 1002.7 |
| 20260506011606 | 71 | 270 | 7.0 | 15.6 | 0.00 | 0.00 | 0.00 | 31 | 1002.6 |
| 20260506011054 | 71 | 276 | 9.6 | 15.6 | 0.00 | 0.00 | 0.00 | 31 | 1002.7 |
| 20260506010553 | 71 | 285 | 8.7 | 14.8 | 0.00 | 0.00 | 0.00 | 32 | 1002.7 |
| 20260506010057 | 71 | 275 | 7.0 | 13.9 | 0.00 | 0.00 | 0.00 | 32 | 1002.7 |
| 20260506005552 | 71 | 266 | 8.7 | 13.9 | 0.00 | 0.00 | 0.00 | 31 | 1002.6 |
| 20260506005055 | 71 | 254 | 7.8 | 17.4 | 0.00 | 0.00 | 0.00 | 32 | 1002.6 |
| 20260506004554 | 72 | 294 | 10.4 | 17.4 | 0.00 | 0.00 | 0.00 | 31 | 1002.5 |
| 20260506004052 | 72 | 274 | 8.7 | 13.9 | 0.00 | 0.00 | 0.00 | 30 | 1002.5 |
| 20260506003552 | 72 | 284 | 11.3 | 13.9 | 0.00 | 0.00 | 0.00 | 29 | 1002.6 |
| 20260506003052 | 72 | 259 | 8.7 | 16.5 | 0.00 | 0.00 | 0.00 | 28 | 1002.4 |
| 20260506002551 | 72 | 275 | 10.4 | 16.5 | 0.00 | 0.00 | 0.00 | 28 | 1002.5 |
| 20260506002051 | 72 | 272 | 9.6 | 15.6 | 0.00 | 0.00 | 0.00 | 29 | 1002.4 |
| 20260506001550 | 72 | 257 | 8.7 | 12.2 | 0.00 | 0.00 | 0.00 | 30 | 1002.6 |
| 20260506001051 | 72 | 289 | 7.0 | 13.0 | 0.00 | 0.00 | 0.00 | 31 | 1002.4 |
| 20260506000550 | 72 | 271 | 8.7 | 14.8 | 0.00 | 0.00 | 0.00 | 31 | 1002.4 |
| 20260506000051 | 72 | 258 | 7.0 | 15.6 | 0.00 | 0.00 | 0.00 | 31 | 1002.4 |
| 20260505235548 | 72 | 270 | 6.1 | 13.0 | 0.00 | 0.00 | 0.00 | 31 | 1002.4 |
| 20260505235047 | 72 | 241 | 8.7 | 14.8 | 0.00 | 0.00 | 0.00 | 31 | 1002.3 |
| 20260505234547 | 72 | 269 | 8.7 | 15.6 | 0.00 | 0.00 | 0.00 | 30 | 1002.4 |
| 20260505234047 | 72 | 237 | 8.7 | 14.8 | 0.00 | 0.00 | 0.00 | 31 | 1002.4 |
| 20260505233545 | 72 | 247 | 10.4 | 17.4 | 0.00 | 0.00 | 0.00 | 31 | 1002.4 |
| 20260505233045 | 72 | 254 | 8.7 | 17.4 | 0.00 | 0.00 | 0.00 | 30 | 1002.4 |
| 20260505232545 | 72 | 255 | 9.6 | 20.0 | 0.00 | 0.00 | 0.00 | 31 | 1002.5 |
| 20260505232047 | 72 | 278 | 7.0 | 21.7 | 0.00 | 0.00 | 0.00 | 31 | 1002.6 |
| 20260505231544 | 73 | 267 | 9.6 | 16.5 | 0.00 | 0.00 | 0.00 | 30 | 1002.5 |
| 20260505231047 | 73 | 287 | 8.7 | 15.6 | 0.00 | 0.00 | 0.00 | 31 | 1002.6 |
| 20260505230542 | 73 | 262 | 9.6 | 15.6 | 0.00 | 0.00 | 0.00 | 31 | 1002.6 |
| 20260505230054 | 73 | 246 | 8.7 | 17.4 | 0.00 | 0.00 | 0.00 | 31 | 1002.7 |
| 20260505225541 | 73 | 284 | 9.6 | 17.4 | 0.00 | 0.00 | 0.00 | 30 | 1002.8 |
| 20260505225041 | 72 | 247 | 8.7 | 20.9 | 0.00 | 0.00 | 0.00 | 30 | 1002.8 |
| 20260505224541 | 72 | 225 | 9.6 | 20.9 | 0.00 | 0.00 | 0.00 | 31 | 1002.9 |
| 20260505224043 | 72 | 268 | 12.2 | 22.6 | 0.00 | 0.00 | 0.00 | 31 | 1002.9 |
| 20260505223539 | 73 | 280 | 13.9 | 22.6 | 0.00 | 0.00 | 0.00 | 30 | 1002.9 |
| 20260505223053 | 73 | 262 | 13.9 | 23.5 | 0.00 | 0.00 | 0.00 | 31 | 1002.9 |
| 20260505222538 | 72 | 255 | 9.6 | 24.3 | 0.00 | 0.00 | 0.00 | 32 | 1003.0 |
| 20260505222038 | 73 | 264 | 14.8 | 24.3 | 0.00 | 0.00 | 0.00 | 31 | 1003.2 |
| 20260505221537 | 72 | 249 | 11.3 | 23.5 | 0.00 | 0.00 | 0.00 | 31 | 1003.2 |
| 20260505221039 | 72 | 246 | 10.4 | 21.7 | 0.00 | 0.00 | 0.00 | 31 | 1003.3 |
| 20260505220536 | 73 | 263 | 13.9 | 22.6 | 0.00 | 0.00 | 0.00 | 31 | 1003.4 |
| 20260505220041 | 73 | 202 | 11.3 | 21.7 | 0.00 | 0.00 | 0.00 | 32 | 1003.3 |
| 20260505215534 | 72 | 189 | 11.3 | 19.1 | 0.00 | 0.00 | 0.00 | 32 | 1003.6 |
| 20260505215034 | 72 | 263 | 12.2 | 21.7 | 0.00 | 0.00 | 0.00 | 32 | 1003.6 |
| 20260505214532 | 72 | 266 | 14.8 | 21.7 | 0.00 | 0.00 | 0.00 | 32 | 1003.6 |
| 20260505214032 | 72 | 280 | 11.3 | 16.5 | 0.00 | 0.00 | 0.00 | 33 | 1003.8 |
| 20260505213530 | 72 | 194 | 7.0 | 15.6 | 0.00 | 0.00 | 0.00 | 36 | 1004.0 |
| 20260505213045 | 71 | 241 | 9.6 | 16.5 | 0.00 | 0.00 | 0.00 | 37 | 1004.0 |
| 20260505212531 | 70 | 222 | 10.4 | 18.2 | 0.00 | 0.00 | 0.00 | 37 | 1004.2 |
| 20260505212027 | 71 | 218 | 10.4 | 20.9 | 0.00 | 0.00 | 0.00 | 37 | 1004.3 |
| 20260505211527 | 70 | 250 | 10.4 | 20.9 | 0.00 | 0.00 | 0.00 | 38 | 1004.3 |
| 20260505211025 | 70 | 246 | 8.7 | 20.0 | 0.00 | 0.00 | 0.00 | 39 | 1004.5 |
| 20260505210524 | 70 | 231 | 11.3 | 19.1 | 0.00 | 0.00 | 0.00 | 39 | 1004.5 |
| 20260505210023 | 70 | 204 | 10.4 | 20.9 | 0.00 | 0.00 | 0.00 | 39 | 1004.6 |
| 20260505205523 | 69 | 264 | 11.3 | 20.9 | 0.00 | 0.00 | 0.00 | 39 | 1004.8 |
| 20260505205022 | 69 | 222 | 8.7 | 14.8 | 0.00 | 0.00 | 0.00 | 40 | 1004.8 |
| 20260505204521 | 68 | 208 | 7.8 | 14.8 | 0.00 | 0.00 | 0.00 | 41 | 1004.9 |
| 20260505204024 | 68 | 201 | 10.4 | 18.2 | 0.00 | 0.00 | 0.00 | 41 | 1005.1 |
| 20260505203520 | 68 | 233 | 10.4 | 18.2 | 0.00 | 0.00 | 0.00 | 41 | 1005.2 |
| 20260505203025 | 68 | 199 | 6.1 | 17.4 | 0.00 | 0.00 | 0.00 | 41 | 1005.2 |
| 20260505202520 | 68 | 262 | 11.3 | 20.9 | 0.00 | 0.00 | 0.00 | 41 | 1005.3 |
| 20260505202020 | 68 | 247 | 12.2 | 20.0 | 0.00 | 0.00 | 0.00 | 42 | 1005.4 |
| 20260505201520 | 67 | 266 | 13.9 | 20.0 | 0.00 | 0.00 | 0.00 | 42 | 1005.4 |
| 20260505201019 | 67 | 279 | 13.9 | 20.9 | 0.00 | 0.00 | 0.00 | 42 | 1005.6 |
| 20260505200521 | 67 | 265 | 13.9 | 20.0 | 0.00 | 0.00 | 0.00 | 42 | 1005.4 |
| 20260505200030 | 67 | 270 | 10.4 | 24.3 | 0.00 | 0.00 | 0.00 | 42 | 1005.5 |
| 20260505195518 | 67 | 233 | 9.6 | 24.3 | 0.00 | 0.00 | 0.00 | 43 | 1005.6 |
| 20260505195018 | 67 | 243 | 14.8 | 20.0 | 0.00 | 0.00 | 0.00 | 43 | 1005.8 |
| 20260505194518 | 66 | 260 | 8.7 | 19.1 | 0.00 | 0.00 | 0.00 | 43 | 1005.8 |
| 20260505194017 | 66 | 234 | 12.2 | 19.1 | 0.00 | 0.00 | 0.00 | 43 | 1005.9 |
| 20260505193517 | 66 | 210 | 13.0 | 19.1 | 0.00 | 0.00 | 0.00 | 43 | 1005.9 |
| 20260505193017 | 65 | 248 | 12.2 | 24.3 | 0.00 | 0.00 | 0.00 | 44 | 1005.9 |
| 20260505192519 | 65 | 272 | 12.2 | 30.4 | 0.00 | 0.00 | 0.00 | 46 | 1006.0 |
| 20260505192016 | 64 | 281 | 16.5 | 30.4 | 0.00 | 0.00 | 0.00 | 50 | 1006.1 |
| 20260505191516 | 64 | 276 | 22.6 | 33.0 | 0.00 | 0.00 | 0.00 | 51 | 1006.0 |
| 20260505191016 | 64 | 279 | 20.9 | 33.0 | 0.00 | 0.00 | 0.00 | 48 | 1006.1 |
| 20260505190517 | 64 | 253 | 22.6 | 31.3 | 0.00 | 0.00 | 0.00 | 47 | 1006.0 |
| 20260505190015 | 64 | 267 | 20.9 | 29.5 | 0.00 | 0.00 | 0.00 | 46 | 1006.3 |
| 20260505185518 | 64 | 274 | 16.5 | 35.6 | 0.00 | 0.00 | 0.00 | 45 | 1006.6 |
| 20260505185014 | 64 | 268 | 20.9 | 35.6 | 0.00 | 0.00 | 0.00 | 44 | 1006.7 |
| 20260505184521 | 65 | 260 | 22.6 | 34.8 | 0.00 | 0.00 | 0.00 | 42 | 1006.8 |
| 20260505184013 | 65 | 283 | 15.6 | 25.2 | 0.00 | 0.00 | 0.00 | 42 | 1006.6 |
| 20260505183512 | 65 | 260 | 13.0 | 24.3 | 0.00 | 0.00 | 0.00 | 43 | 1006.6 |
| 20260505183011 | 65 | 276 | 15.6 | 24.3 | 0.00 | 0.00 | 0.00 | 44 | 1006.2 |
| 20260505182510 | 65 | 258 | 13.9 | 21.7 | 0.00 | 0.00 | 0.00 | 44 | 1006.1 |
| 20260505182010 | 65 | 280 | 15.6 | 27.8 | 0.00 | 0.00 | 0.00 | 43 | 1006.1 |
| 20260505181510 | 65 | 276 | 17.4 | 27.8 | 0.00 | 0.00 | 0.00 | 44 | 1006.1 |
| 20260505181010 | 66 | 286 | 13.9 | 22.6 | 0.00 | 0.00 | 0.00 | 41 | 1006.0 |
| 20260505180514 | 66 | 294 | 16.5 | 22.6 | 0.00 | 0.00 | 0.00 | 41 | 1006.0 |
| 20260505180009 | 66 | 281 | 15.6 | 27.8 | 0.00 | 0.00 | 0.00 | 41 | 1005.9 |
| 20260505175509 | 66 | 310 | 15.6 | 27.8 | 0.00 | 0.00 | 0.00 | 40 | 1005.8 |
| 20260505175009 | 67 | 274 | 11.3 | 20.9 | 0.00 | 0.00 | 0.00 | 38 | 1005.9 |
| 20260505174514 | 67 | 286 | 13.9 | 21.7 | 0.00 | 0.00 | 0.00 | 38 | 1005.9 |
| 20260505174008 | 68 | 294 | 12.2 | 22.6 | 0.00 | 0.00 | 0.00 | 37 | 1005.7 |
| 20260505173512 | 68 | 282 | 15.6 | 22.6 | 0.00 | 0.00 | 0.00 | 37 | 1005.7 |
| 20260505173018 | 68 | 283 | 9.6 | 15.6 | 0.00 | 0.00 | 0.00 | 37 | 1005.7 |
| 20260505172505 | 68 | 235 | 9.6 | 16.5 | 0.00 | 0.00 | 0.00 | 37 | 1005.7 |
| 20260505172006 | 67 | 246 | 9.6 | 18.2 | 0.00 | 0.00 | 0.00 | 37 | 1005.7 |
| 20260505171505 | 67 | 252 | 10.4 | 19.1 | 0.00 | 0.00 | 0.00 | 37 | 1005.8 |
| 20260505171009 | 67 | 241 | 11.3 | 19.1 | 0.00 | 0.00 | 0.00 | 37 | 1005.6 |
| 20260505170504 | 67 | 270 | 7.0 | 13.0 | 0.00 | 0.00 | 0.00 | 38 | 1005.6 |
| 20260505170004 | 67 | 211 | 8.7 | 14.8 | 0.00 | 0.00 | 0.00 | 37 | 1005.5 |
| 20260505165503 | 67 | 254 | 9.6 | 14.8 | 0.00 | 0.00 | 0.00 | 38 | 1005.4 |
| 20260505165003 | 67 | 271 | 7.8 | 15.6 | 0.00 | 0.00 | 0.00 | 39 | 1005.6 |
| 20260505164502 | 66 | 301 | 9.6 | 15.6 | 0.00 | 0.00 | 0.00 | 39 | 1005.5 |
| 20260505164100 | 66 | 265 | 7.8 | 14.8 | 0.00 | 0.00 | 0.00 | 40 | 1005.5 |
| 20260505163558 | 66 | 275 | 6.1 | 11.3 | 0.00 | 0.00 | 0.00 | 41 | 1005.6 |
| 20260505163101 | 65 | 232 | 2.6 | 9.6 | 0.00 | 0.00 | 0.00 | 43 | 1005.5 |
| 20260505162559 | 65 | 270 | 5.2 | 10.4 | 0.00 | 0.00 | 0.00 | 43 | 1005.5 |
| 20260505162054 | 65 | 258 | 7.0 | 11.3 | 0.00 | 0.00 | 0.00 | 43 | 1005.5 |
| 20260505161553 | 64 | 242 | 7.0 | 11.3 | 0.00 | 0.00 | 0.00 | 43 | 1005.4 |
| 20260505161053 | 64 | 239 | 5.2 | 8.7 | 0.00 | 0.00 | 0.00 | 42 | 1005.4 |
| 20260505160557 | 64 | 276 | 4.3 | 8.7 | 0.00 | 0.00 | 0.00 | 43 | 1005.4 |
| 20260505153106 | 63 | 286 | 6.1 | 8.7 | 0.00 | 0.00 | 0.00 | 45 | 1005.8 |
| 20260505152548 | 63 | 278 | 0.9 | 7.0 | 0.00 | 0.00 | 0.00 | 47 | 1005.7 |
| 20260505152047 | 63 | 316 | 1.7 | 7.8 | 0.00 | 0.00 | 0.00 | 47 | 1005.8 |
| 20260505151555 | 63 | 316 | 2.6 | 7.8 | 0.00 | 0.00 | 0.00 | 47 | 1005.8 |
| 20260505151047 | 63 | 250 | 1.7 | 6.1 | 0.00 | 0.00 | 0.00 | 48 | 1005.7 |
| 20260505150547 | 63 | 243 | 1.7 | 3.5 | 0.00 | 0.00 | 0.00 | 47 | 1005.6 |
| 20260505140543 | 59 | 185 | 0.9 | 3.5 | 0.00 | 0.00 | 0.00 | 57 | 1005.8 |
| 20260505125023 | 57 | 185 | 0.0 | 1.7 | 0.00 | 0.00 | 0.00 | 58 | 1005.4 |
| 20260505124527 | 57 | 185 | 0.0 | 3.5 | 0.00 | 0.00 | 0.00 | 59 | 1005.2 |
| 20260505124022 | 56 | 185 | 0.9 | 3.5 | 0.00 | 0.00 | 0.00 | 59 | 1005.3 |
| 20260505123521 | 56 | 154 | 0.0 | 4.3 | 0.00 | 0.00 | 0.00 | 60 | 1005.2 |
| 20260505123018 | 56 | 154 | 0.9 | 5.2 | 0.00 | 0.00 | 0.00 | 61 | 1005.2 |
| 20260505122517 | 55 | 154 | 2.6 | 5.2 | 0.00 | 0.00 | 0.00 | 61 | 1005.1 |
| 20260505122017 | 55 | 156 | 2.6 | 5.2 | 0.00 | 0.00 | 0.00 | 62 | 1005.1 |
| 20260505121517 | 55 | 195 | 2.6 | 4.3 | 0.00 | 0.00 | 0.00 | 62 | 1004.9 |
| 20260505121017 | 55 | 195 | 1.7 | 3.5 | 0.00 | 0.00 | 0.00 | 62 | 1004.8 |
| 20260505120515 | 56 | 200 | 1.7 | 3.5 | 0.00 | 0.00 | 0.00 | 61 | 1004.8 |
| 20260505120014 | 56 | 218 | 1.7 | 3.5 | 0.00 | 0.00 | 0.00 | 60 | 1004.8 |
| 20260505115513 | 56 | 273 | 0.0 | 1.7 | 0.00 | 0.00 | 0.00 | 58 | 1004.8 |
| 20260505115012 | 56 | 273 | 0.0 | 1.7 | 0.00 | 0.00 | 0.00 | 57 | 1004.8 |
| 20260505114522 | 57 | 273 | 0.0 | 2.6 | 0.00 | 0.00 | 0.00 | 57 | 1004.7 |
| 20260505114012 | 57 | 273 | 0.0 | 1.7 | 0.00 | 0.00 | 0.00 | 56 | 1004.7 |
| 20260505113509 | 57 | 273 | 0.0 | 1.7 | 0.00 | 0.00 | 0.00 | 56 | 1004.7 |
| 20260505113009 | 57 | 273 | 0.0 | 2.6 | 0.00 | 0.00 | 0.00 | 55 | 1004.7 |
| 20260505112508 | 58 | 273 | 0.0 | 1.7 | 0.00 | 0.00 | 0.00 | 54 | 1004.7 |
| 20260505112008 | 58 | 273 | 0.0 | 2.6 | 0.00 | 0.00 | 0.00 | 53 | 1004.4 |
| 20260505111508 | 58 | 273 | 0.9 | 4.3 | 0.00 | 0.00 | 0.00 | 53 | 1004.4 |
| 20260505111009 | 58 | 273 | 1.7 | 4.3 | 0.00 | 0.00 | 0.00 | 53 | 1004.4 |
| 20260505110507 | 58 | 189 | 1.7 | 4.3 | 0.00 | 0.00 | 0.00 | 53 | 1004.5 |